KJ6HT Weather Reports


Display with metric or nautical units.
time (UTC)temp
F
wind
direction
speed
MPH
gust
MPH
rain 1hr
in
rain 24hr
in
rain mn
in
humidity
%
barometer
mb
20260505173024 62 284 1.0 7.0 0.00 0.14 0.14 65 1013.7
20260505171522 62 308 3.0 10.0 0.00 0.14 0.14 66 1013.7
20260505170023 61 255 2.0 6.0 0.00 0.14 0.14 68 1013.6
20260505164518 61 277 1.0 9.0 0.00 0.14 0.14 72 1013.5
20260505163013 60 252 3.0 7.0 0.00 0.14 0.14 76 1013.5
20260505161510 58 21 3.0 8.0 0.00 0.14 0.14 78 1013.4
20260505153007 57 195 3.0 10.0 0.00 0.14 0.14 83 1013.1
20260505151503 57 237 3.0 9.0 0.00 0.14 0.14 86 1013.0
20260505140118 54 219 0.0 2.0 0.00 0.14 0.14 93 1012.6
20260505124559 53 260 0.0 2.0 0.00 0.14 0.14 93 1012.3
20260505123056 53 252 0.0 5.0 0.09 0.14 0.14 93 1012.3
20260505121553 53 293 0.0 4.0 0.11 0.14 0.14 93 1012.3
20260505120106 54 277 0.0 3.0 0.13 0.14 0.14 93 1012.3
20260505114552 54 295 1.0 5.0 0.13 0.14 0.14 93 1012.3
20260505113054 54 260 1.0 4.0 0.05 0.05 0.05 92 1012.5
20260505111548 54 295 3.0 7.0 0.03 0.03 0.03 92 1012.4
20260505101538 56 309 0.0 1.0 0.00 0.00 0.00 88 1012.3
20260505100036 56 309 0.0 1.0 0.00 0.00 0.00 86 1012.5
20260505094532 56 309 0.0 1.0 0.00 0.00 0.00 85 1012.5
20260505093039 56 309 0.0 2.0 0.00 0.00 0.00 85 1012.6
20260505091529 56 301 0.0 1.0 0.00 0.00 0.00 84 1012.7
20260505090030 56 301 1.0 2.0 0.00 0.00 0.00 83 1012.9
20260505084530 56 276 0.0 1.0 0.00 0.00 0.00 83 1013.0
20260505083023 57 287 0.0 1.0 0.00 0.00 0.00 81 1013.1
20260505081522 57 276 0.0 2.0 0.00 0.00 0.00 80 1013.4
20260505080027 57 294 1.0 4.0 0.00 0.00 0.00 80 1013.5
20260505074514 57 291 1.0 4.0 0.00 0.00 0.00 81 1013.5
20260505073013 56 304 2.0 4.0 0.00 0.00 0.00 82 1013.6
20260505071511 56 301 1.0 4.0 0.00 0.00 0.00 82 1013.7
20260505070015 57 319 1.0 3.0 0.00 0.00 0.00 82 1013.6
20260505064512 57 243 0.0 3.0 0.00 0.00 0.00 80 1013.7
20260505063008 57 240 1.0 6.0 0.00 0.00 0.00 79 1013.7
20260505061510 57 316 1.0 5.0 0.00 0.00 0.00 78 1013.7
20260505060006 57 236 2.0 7.0 0.00 0.00 0.00 78 1013.7
20260505054507 58 303 4.0 10.0 0.00 0.00 0.00 79 1013.7
20260505053009 58 274 6.0 11.0 0.00 0.00 0.00 78 1013.8
20260505051505 58 285 4.0 10.0 0.00 0.00 0.00 77 1014.0
20260505041502 58 249 2.0 10.0 0.00 0.00 0.00 76 1014.0
20260505040005 59 257 3.0 11.0 0.00 0.00 0.00 75 1013.9
20260505034501 59 311 6.0 10.0 0.00 0.00 0.00 74 1013.6
20260505033001 59 236 3.0 9.0 0.00 0.00 0.00 71 1013.6
20260505031600 60 249 5.0 12.0 0.00 0.00 0.00 70 1013.4
20260505030059 60 221 4.0 13.0 0.00 0.00 0.00 69 1013.3
20260505024558 60 243 5.0 13.0 0.00 0.00 0.00 69 1013.2
20260505023058 61 224 6.0 13.0 0.00 0.00 0.00 68 1013.3
20260505021601 61 233 4.0 14.0 0.00 0.00 0.00 67 1013.1
20260505020056 62 233 5.0 17.0 0.00 0.00 0.00 63 1013.1
20260505014556 62 233 3.0 12.0 0.00 0.00 0.00 61 1013.1
20260505013055 63 222 4.0 14.0 0.00 0.00 0.00 61 1013.2
20260505011557 63 193 3.0 11.0 0.00 0.00 0.00 59 1013.2
20260505010100 63 276 6.0 15.0 0.00 0.00 0.00 56 1013.3
20260505004551 64 256 4.0 12.0 0.00 0.00 0.00 56 1013.3
20260505003051 64 250 7.0 12.0 0.00 0.00 0.00 57 1013.4
20260505001552 64 222 6.0 16.0 0.00 0.00 0.00 56 1013.4
20260505000057 65 266 5.0 16.0 0.00 0.00 0.00 56 1013.3
20260504234555 66 217 9.0 14.0 0.00 0.00 0.00 55 1013.1
20260504233048 66 212 8.0 12.0 0.00 0.00 0.00 53 1013.0
20260504231546 68 287 7.0 13.0 0.00 0.00 0.00 51 1012.9
20260504230046 68 212 6.0 14.0 0.00 0.00 0.00 52 1012.7
20260504224543 68 291 7.0 17.0 0.00 0.00 0.00 51 1013.1
20260504223042 69 140 7.0 12.0 0.00 0.00 0.00 49 1013.1
20260504221542 68 255 4.0 12.0 0.00 0.00 0.00 49 1013.3
20260504220047 69 206 4.0 11.0 0.00 0.00 0.00 48 1013.5
20260504214539 69 250 4.0 14.0 0.00 0.00 0.00 49 1013.5
20260504213052 68 232 4.0 8.0 0.00 0.00 0.00 49 1014.0
20260504211542 69 207 6.0 14.0 0.00 0.00 0.00 49 1014.1
20260504210034 68 208 3.0 10.0 0.00 0.00 0.00 47 1014.2
20260504204540 67 165 3.0 10.0 0.00 0.00 0.00 51 1014.3
20260504203034 66 218 6.0 14.0 0.00 0.00 0.00 51 1014.4
20260504201532 67 259 5.0 11.0 0.00 0.00 0.00 49 1014.5
20260504200033 67 256 3.0 10.0 0.00 0.00 0.00 49 1014.5
20260504194531 66 111 4.0 12.0 0.00 0.00 0.00 49 1014.6
20260504193031 67 200 6.0 11.0 0.00 0.00 0.00 48 1014.6
20260504191533 67 329 6.0 11.0 0.00 0.00 0.00 46 1014.5
20260504190032 66 287 5.0 12.0 0.00 0.00 0.00 49 1014.5
20260504184527 67 277 2.0 10.0 0.00 0.00 0.00 51 1014.6
20260504183027 67 301 6.0 10.0 0.00 0.00 0.00 48 1014.7
20260504181524 67 190 4.0 8.0 0.00 0.00 0.00 52 1014.8
20260504180020 65 233 2.0 10.0 0.00 0.00 0.00 58 1014.9
20260504174522 65 264 3.0 9.0 0.00 0.00 0.00 58 1014.8